Location: Saluda
(35.2377°N, 82.3468°W)
Time: 04:44:44
(UTC+00:00)

Vanguard 2 Rocket - Pass Details

Date: 06 October 2022
Orbit: 555 x 3321 km, 32.9° (Epoch: 04 December)

Event Time Altitude Azimuth Distance (km) Brightness Sun altitude
Rises 07:31:31 0° 279° (W) 5,612 - -46.9°
Reaches altitude 10° 07:35:59 10° 276° (W) 4,140 - -46.2°
Maximum altitude 07:45:41 55° 202° (SSW) 1,348 - -44.5°
Drops below altitude 10° 07:51:16 10° 125° (SE) 2,433 - -43.6°
Sets 07:53:17 0° 120° (ESE) 3,168 - -43.2°
